Regional Weather Roundup
Issued by NWS

Home | Current Version | Previous Version | Graphics & Text | Print | Product List | Glossary On
Versions: 1 2 3 4 5 6 7 8 9 10 11 12 13 14 15 16 17 18 19 20 21 22 23 24 25 26 27 28 29 30 31 32 33 34 35 36 37 38 39 40 41 42 43 44 45 46 47 48 49 50
000
ASUS45 KPSR 270810
RWRAZ

ARIZONA REGIONAL HOURLY WEATHER ROUNDUP
NATIONAL WEATHER SERVICE TUCSON AZ
100 AM MST SAT MAY 27 2017

NOTE: FAIR INDICATES FEW OR NO CLOUDS BELOW 12,000 FEET WITH NO
SIGNIFICANT WEATHER AND/OR OBSTRUCTIONS TO VISIBILITY.

AZZ001>003-036-270900-
NORTHWEST ARIZONA

CITY           SKY/WX    TMP DP  RH WIND       PRES   REMARKS
BULLHEAD CITY  CLEAR     79  32  18 CALM      29.79S
KINGMAN        CLEAR     59  23  25 S7        29.94S
$$

AZZ004>008-015-016-018-270900-
NORTH CENTRAL ARIZONA

CITY           SKY/WX    TMP DP  RH WIND       PRES   REMARKS
GRAND CANYON   CLEAR     39  26  59 CALM      30.13R
WILLIAMS       MOSUNNY   50  25  37 S8        30.13S
PRESCOTT       CLEAR     58  28  32 SW8       30.06S
FLAGSTAFF      CLEAR     37  20  50 CALM      30.15S
PAYSON         SUNNY     55  18  22 CALM      30.10S
PAGE           CLEAR     70  18  13 NW3       29.94R
$$

AZZ009>014-017-270900-
NORTHEAST ARIZONA

CITY           SKY/WX    TMP DP  RH WIND       PRES   REMARKS
WINSLOW        CLEAR     52  17  25 W3        30.04S
SAINT JOHNS    CLEAR     47  18  31 W3        30.08S
WINDOW ROCK    CLEAR     51  15  23 CALM      30.12S
SHOW LOW       CLEAR     50  16  25 SW8       30.13S
$$

AZZ023-270900-
GREATER PHOENIX AREA

CITY           SKY/WX    TMP DP  RH WIND       PRES   REMARKS
PHOENIX        CLEAR     78  30  17 SE8       29.86R
BUCKEYE        SUNNY     68  25  19 NW8       29.87R
LUKE AFB       CLEAR     78  27  15 S10       29.85R
DEER VALLEY    CLEAR     73  29  19 NW7       29.88R
SCOTTSDALE     CLEAR     76  32  20 NE6       29.90R
MESA-GATEWAY   CLEAR     70  27  19 E8        29.90R
$$

AZZ027-028-270900-
SOUTHWEST MARICOPA COUNTY AND PINAL COUNTY

CITY           SKY/WX    TMP DP  RH WIND       PRES   REMARKS
CASA GRANDE    CLEAR     72  25  17 SE6       29.91R
$$

AZZ503-504-507>509-270900-
SOUTHEAST ARIZONA

CITY           SKY/WX    TMP DP  RH WIND       PRES   REMARKS
TUCSON         CLEAR     73  30  20 E3        29.99S
DAVIS-MONTHAN  CLEAR     67  27  22 CALM      29.98S
NOGALES        CLEAR     62  27  26 E3        30.05S
SIERRA VISTA   CLEAR     67  25  20 SW7       30.09S
DOUGLAS        CLEAR     66  31  27 SW5       30.06S
SAFFORD        CLEAR     70  25  18 W9        29.96S
$$

AZZ020-021-025-026-031-270900-
SOUTHWEST ARIZONA

CITY           SKY/WX    TMP DP  RH WIND       PRES   REMARKS
YUMA           CLEAR     72  52  49 S8        29.84S
$$

CAZ031-033-041-043-047-048-061-270900-
SOUTHERN CALIFORNIA

CITY           SKY/WX    TMP DP  RH WIND       PRES   REMARKS
DOWNTOWN L.A.  CLEAR     61  55  81 CALM      30.02S
L.A. AIRPORT   PTCLDY    59  54  83 W10       30.02S
SAN DIEGO      MOCLDY    63  56  78 N5        30.04F
BURBANK        CLEAR     58  47  66 W5        30.01F
ONTARIO        MOCLDY    59  48  67 W5        30.02F
RIVERSIDE      CLOUDY    60  50  69 W5        30.03S
PALM SPRINGS   CLEAR     72  47  40 NW13      29.85R
EL CENTRO NAS  CLEAR     71  42  35 W12       29.84R
IMPERIAL       LGT RAIN  71  44  37 NW10      29.81S
BLYTHE         CLEAR     76  46  34 S16       29.80F
NEEDLES        CLEAR     83  35  18 NE5       29.80S
$$

NVZ020-UTZ003-270900-
SOUTHERN NEVADA-UTAH

CITY           SKY/WX    TMP DP  RH WIND       PRES   REMARKS
LAS VEGAS      CLEAR     78  21  12 SW13      29.81R
SALT LAKE CITY CLEAR     50  41  71 W6        30.09R
$$

NMZ009-TXZ055-270900-
NEW MEXICO-WEST TEXAS

CITY           SKY/WX    TMP DP  RH WIND       PRES   REMARKS
ALBUQUERQUE    CLEAR     60   9  13 SE6       30.05R
EL PASO        CLEAR     81  26  13 W18       29.99S
$$


........................KEY........................
SKY/WX - SKY CONDITION/WEATHER
TMP    - TEMPERATURE IN FAHRENHEIT
DP     - DEWPOINT IN FAHRENHEIT
RH     - RELATIVE HUMIDITY IN PERCENT
WIND   - DIRECTION AND SPEED IN MILES PER HOUR (MPH)
VRB    - VARIABLE WIND DIRECTION
PRES   - MEAN SEA LEVEL PRESSURE IN INCHES OF MERCURY
         F - FALLING PRESSURE   R - RISING PRESSURE
         S - STEADY PRESSURE
VSB    - VISIBILITY IN MILES
HX     - HEAT INDEX IN FAHRENHEIT
WCI    - WIND CHILL INDEX IN FAHRENHEIT
TC     - TEMPERATURE IN CELSIUS WHICH IS ALSO KNOWN AS
         TEMPERATURE IN CENTIGRADE
AFB    - AIR FORCE BASE
         LUKE AFB IS LUKE AIR FORCE BASE
         DAVIS-MONTHAN IS DAVIS-MONTHAN AIR FORCE BASE
NAS    - NAVAL AIR STATION
         EL CENTRO NAS IS EL CENTRO NAVAL AIR STATION
N/A    - NOT AVAILABLE




USA.gov is the U.S. government's official web portal to all federal, state and local government web resources and services.